Flag for Guadeloupe Weather past 2 weeks in Pointe-à-Pitre, Guadeloupe

Now
73 °F

Partly sunny.


Feels Like: 73 °F
Forecast: 73 / 82 °F
Wind: 12 mph from Southeast

Location: Le Raizet - Guadeloupe


UV Index: 10 (Very high)

Visibility: N/A


Pressure: 30.01 "Hg

Humidity: 83%

Dew point: 68 °F

Location of Pointe-à-PitreLocation

Historic Weather in Pointe-à-Pitre

°F

Pointe-à-Pitre temperature yesterday

Maximum temperature yesterday: 82 °F (at 10:00 AM)
Minimum temperature yesterday: 73 °F (at 4:00 AM)
Average temperature yesterday: 76 °F

Past Weeks' High & Low Weather Summary

 TemperatureHumidityPressure
High88 °F (Apr 9, 2:00 PM)100% (Apr 5, 1:00 AM)30.12 "Hg (Apr 5, 1:00 AM)
Low66 °F (Apr 3, 6:00 AM)33% (Apr 9, 1:00 PM)29.86 "Hg (Apr 15, 3:30 PM)
Average78 °F72%30.01 "Hg
* Reported Apr 3 6:00 AM — Apr 18 6:00 AM, Pointe-à-Pitre, Weather by CustomWeather, © 2014

Note: Actual official high and low records may vary slightly from our data, if they occured in-between our weather recording intervals... More about our weather records

Advertising

Historic Weather Conditions — Data for Previous 24 hours

 ConditionsComfort  
Time TempWeatherWind HumidityBarometerVisibility
6:00 AM
Apr 18
75 °FPartly sunny.5 mph74%29.98 "HgN/A
5:30 AM73 °FPassing clouds.6 mph78%29.98 "HgN/A
5:00 AM73 °FPassing clouds.6 mph78%29.98 "HgN/A
4:30 AM75 °FPassing clouds.8 mph74%29.98 "HgN/A
4:00 AM75 °FMild.6 mph74%29.98 "HgN/A
3:30 AM75 °FMild.9 mph74%29.98 "HgN/A
3:00 AM75 °FPassing clouds.8 mph78%29.98 "HgN/A
2:30 AM75 °FPassing clouds.7 mph78%29.98 "HgN/A
2:00 AM75 °FPartly cloudy.7 mph78%29.98 "HgN/A
1:30 AM73 °FPassing clouds.8 mph78%30.01 "HgN/A
1:00 AM75 °FClear.7 mph74%30.01 "HgN/A
12:30 AM75 °FPartly cloudy.6 mph78%30.01 "HgN/A
12:00 AM75 °FPassing clouds.7 mph78%30.04 "HgN/A
11:30 PM
Apr 17
75 °FMild.8 mph78%30.04 "HgN/A
11:00 PM75 °FPassing clouds.8 mph78%30.04 "HgN/A
10:30 PM75 °FPassing clouds.6 mph78%30.04 "HgN/A
10:00 PM75 °FClear.8 mph78%30.04 "HgN/A
9:30 PM73 °FClear.6 mph89%30.04 "HgN/A
9:00 PM73 °FMostly cloudy.7 mph89%30.04 "HgN/A
8:30 PM73 °FLight rain. Partly cloudy.5 mph89%30.04 "HgN/A
8:00 PM73 °FLight rain. Partly cloudy.7 mph83%30.01 "Hg5 mi
7:30 PM73 °FLight rain. Partly cloudy.9 mph83%30.01 "HgN/A
7:00 PM73 °FSprinkles. Passing clouds.9 mph83%30.01 "Hg5 mi
6:30 PM75 °FPassing clouds.8 mph78%30.01 "HgN/A
6:00 PM75 °FBroken clouds.7 mph78%29.98 "HgN/A
5:30 PM77 °FBroken clouds.9 mph79%29.98 "HgN/A
5:00 PM81 °FBroken clouds.12 mph66%29.98 "HgN/A
4:30 PM81 °FPartly sunny.12 mph62%29.98 "HgN/A
4:00 PM82 °FScattered clouds.12 mph62%29.98 "HgN/A
3:30 PM81 °FScattered clouds.12 mph62%29.98 "HgN/A
3:00 PM82 °FScattered clouds.16 mph58%29.98 "HgN/A
2:30 PM81 °FScattered clouds.10 mph70%29.98 "HgN/A
2:00 PM79 °FSprinkles. Broken clouds.13 mph74%29.98 "HgN/A
1:00 PM79 °FPartly sunny.8 mph79%30.01 "HgN/A
12:30 PM82 °FPartly sunny.12 mph62%30.01 "HgN/A
12:00 PM81 °FSprinkles. Partly sunny.13 mph66%30.01 "HgN/A
11:30 AM79 °FPartly sunny.10 mph74%30.01 "HgN/A
11:00 AM75 °FSprinkles. Partly sunny.14 mph78%30.01 "Hg4 mi
10:30 AM82 °FRain. Partly sunny.12 mph62%30.01 "HgN/A
10:00 AM82 °FRain. Broken clouds.12 mph66%30.01 "HgN/A
9:30 AM79 °FRain. Broken clouds.6 mph74%30.04 "HgN/A
9:00 AM75 °FBroken clouds.3 mph83%30.01 "HgN/A
8:30 AM73 °FBroken clouds.2 mph89%30.01 "HgN/A
8:00 AM73 °FPartly sunny.10 mph83%30.01 "HgN/A
7:35 AM75 °FRain. Broken clouds.7 mph83%30.01 "HgN/A
7:30 AM75 °FRain. Partly sunny.7 mph83%30.01 "HgN/A
7:00 AM73 °FLight rain. Broken clouds.9 mph89%29.98 "Hg4 mi
Weather by CustomWeather, © 2014

See weather overview